Weather in Letny-2

Russia / Republic of Karelia     64°16′21″N   34°13′22″E
temp.,
°C
wind,
m/s
gust,
m/s
humid.,
%
clouds,
%
prec.,
mm/h
press.,
hPa
HPBL,
m
28 february, sun
sun2800:00−8wsw239624 0.0 101243
03:00−8sw239555 0.0 101145
06:00−7ssw239699 0.0 100968
09:00−6ssw249698 0.0 1010125
12:00−2sw359491 0.0 1011297
15:00−1wsw359389 0.0 1012411
18:00−1w3795100 0.0 1012415
21:00+1w4993100 0.0 1012431
1 march, mon
mon100:00−1wsw4109393 0.0 1010342
03:00+1wsw6129797 0.0 1009622
06:00+2w61494100 0.0 1006750
09:00+2w51492100 0.0 1004744
12:00+2w51298100 0.0 1003680
15:00+2w51293100 0.1 1002810
18:00+1w5148891 0.0 1000692
21:00+1wnw6129295 1.0 999918
2 march, tue
tue200:00−1wnw6158134 0.0 999850
03:00−2wnw5168352 0.0 1000692
06:00−3wnw514850 0.0 1000540
09:00−4wnw4128738 0.0 1002596
12:00−1nw5107959 0.0 10031002
15:00−3nw6117977 0.1 10061119
18:00−5nw4138398 0.0 1008801
21:00−6nw4138349 0.0 1010555
3 march, wed
wed300:00−7wnw310890 0.0 1010305
03:00−8w39940 0.0 1009232
06:00−7wnw4119345 0.0 1008352
09:00−7wnw4109460 0.0 1007283
12:00−4w499092 0.0 1005467
15:00−1w498476 0.0 1003553
18:00−5sw239285 0.0 99923
21:00−5ese129793 0.0 99523
4 march, thu
thu400:00−5ene51095100 1.0 992458
03:00−7ne71387100 1.9 992735
06:00−10n41192100 0.0 995394
09:00−11nnw4119369 0.0 996348
12:00−7nnw498998 0.1 998687
15:00−8nne598799 0.4 999929
18:00−12n399276 0.0 1001283
21:00−13nnw249479 0.0 1002103